sat.trackr.live / text

‹ back to catalog

STARLINK-31330

NORAD 58951 · 2024-027W

PAYLOAD ACTIVE UNKNOWN

§ Identity

Operator
Country
US
Launch date
2024-02-10
Launch site
AFWTR
Launch vehicle
Mass (kg)
RCS (m²)

Purposes: comms

External: N2YO · Heavens-Above · Gunter

§ Orbital elements

Epoch: 2026-09-19T07:40:35.904000Z

Period
93.85 min
Inclination
53.1575°
Eccentricity
0.0001099
Mean motion
15.34372900 rev/d
Perigee alt
462.0 km
Apogee alt
463.5 km
Semi-major
6,840.9 km
B*
-5.7126e-7
RAAN
123.1779°
Arg perigee
89.4163°
Mean anomaly
270.6966°
Rev number
14,707

§ Raw data

STARLINK-313301 58951U 24027W   26262.31986000 -.00000395  00000+0 -57126-6 0  99932 58951  53.1575 123.1779 0001099  89.4163 270.6966 15.34372900147075

JSON: /api/v1/satellites/58951 · /tle

For live sub-satellite position, see the globe view (requires WebGL).

§ Visibility from observer

Set your observer location to see the next 7 days of passes ≥ 10°. The values pass through the URL so the page stays shareable.

No JS? Fill the form by hand. The geolocation button needs JavaScript.